Year,Month,Day,Hour,Minute,Value (Times are PST for windspeed in km/hr)
2019,10,16,00,00,14.70
2019,10,16,00,01,13.60
2019,10,16,00,02,15.70
2019,10,16,00,03,9.70
2019,10,16,00,04,15.00
2019,10,16,00,05,18.40
2019,10,16,00,06,18.40
2019,10,16,00,07,14.10
2019,10,16,00,08,12.20
2019,10,16,00,09,12.40
2019,10,16,00,10,15.10
2019,10,16,00,11,18.20
2019,10,16,00,12,12.30
2019,10,16,00,13,14.50
2019,10,16,00,14,14.40
2019,10,16,00,15,13.90
2019,10,16,00,16,15.90
2019,10,16,00,17,12.50
2019,10,16,00,18,14.40
2019,10,16,00,19,14.20
2019,10,16,00,20,9.80
2019,10,16,00,21,10.00
2019,10,16,00,22,12.90
2019,10,16,00,23,12.00
2019,10,16,00,24,13.20
2019,10,16,00,25,13.50
2019,10,16,00,26,13.50
2019,10,16,00,27,16.20
2019,10,16,00,28,15.00
2019,10,16,00,29,13.70
2019,10,16,00,30,13.80
2019,10,16,00,31,10.80
2019,10,16,00,32,13.10
2019,10,16,00,33,11.40
2019,10,16,00,34,11.60
2019,10,16,00,35,16.30
2019,10,16,00,36,11.70
2019,10,16,00,37,12.30
2019,10,16,00,38,10.20
2019,10,16,00,39,10.70
2019,10,16,00,40,8.90
2019,10,16,00,41,7.30
2019,10,16,00,42,8.90
2019,10,16,00,43,9.30
2019,10,16,00,44,11.10
2019,10,16,00,45,14.80
2019,10,16,00,46,15.00
2019,10,16,00,47,14.30
2019,10,16,00,48,11.90
2019,10,16,00,49,12.90
2019,10,16,00,50,12.30
2019,10,16,00,51,13.90
2019,10,16,00,52,11.70
2019,10,16,00,53,12.80
2019,10,16,00,54,13.30
2019,10,16,00,55,14.60
2019,10,16,00,56,11.30
2019,10,16,00,57,13.90
2019,10,16,00,58,11.50
2019,10,16,00,59,13.40
2019,10,16,01,00,15.30
2019,10,16,01,01,13.10
2019,10,16,01,02,13.20
2019,10,16,01,03,15.10
2019,10,16,01,04,14.00
2019,10,16,01,05,12.80
2019,10,16,01,06,16.00
2019,10,16,01,07,12.30
2019,10,16,01,08,13.80
2019,10,16,01,09,11.30
2019,10,16,01,10,13.90
2019,10,16,01,11,12.70
2019,10,16,01,12,10.90
2019,10,16,01,13,14.50
2019,10,16,01,14,11.60
2019,10,16,01,15,12.50
2019,10,16,01,16,13.20
2019,10,16,01,17,12.00
2019,10,16,01,18,11.30
2019,10,16,01,19,10.70
2019,10,16,01,20,15.00
2019,10,16,01,21,10.50
2019,10,16,01,22,10.60
2019,10,16,01,23,17.40
2019,10,16,01,24,17.00
2019,10,16,01,25,12.50
2019,10,16,01,26,14.30
2019,10,16,01,27,13.20
2019,10,16,01,28,10.10
2019,10,16,01,29,14.40
2019,10,16,01,30,10.10
2019,10,16,01,31,8.10
2019,10,16,01,32,13.70
2019,10,16,01,33,9.80
2019,10,16,01,34,8.00
2019,10,16,01,35,11.90
2019,10,16,01,36,10.30
2019,10,16,01,37,12.90
2019,10,16,01,38,9.10
2019,10,16,01,39,17.30
2019,10,16,01,40,9.60
2019,10,16,01,41,13.30
2019,10,16,01,42,12.70
2019,10,16,01,43,10.10
2019,10,16,01,44,10.40
2019,10,16,01,45,13.20
2019,10,16,01,46,18.20
2019,10,16,01,47,22.20
2019,10,16,01,48,19.30
2019,10,16,01,49,23.70
2019,10,16,01,50,18.60
2019,10,16,01,51,19.10
2019,10,16,01,52,15.00
2019,10,16,01,53,17.40
2019,10,16,01,54,20.70
2019,10,16,01,55,19.70
2019,10,16,01,56,21.50
2019,10,16,01,57,22.40
2019,10,16,01,58,26.50
2019,10,16,01,59,24.40
2019,10,16,02,00,19.30
2019,10,16,02,01,19.80
2019,10,16,02,02,19.10
2019,10,16,02,03,19.70
2019,10,16,02,04,17.20
2019,10,16,02,05,15.80
2019,10,16,02,06,14.00
2019,10,16,02,07,16.20
2019,10,16,02,08,24.00
2019,10,16,02,09,19.70
2019,10,16,02,10,16.50
2019,10,16,02,11,18.40
2019,10,16,02,12,20.00
2019,10,16,02,13,21.70
2019,10,16,02,14,16.50
2019,10,16,02,15,21.50
2019,10,16,02,16,14.10
2019,10,16,02,17,18.10
2019,10,16,02,18,21.70
2019,10,16,02,19,18.40
2019,10,16,02,20,17.80
2019,10,16,02,21,17.00
2019,10,16,02,22,23.80
2019,10,16,02,23,25.30
2019,10,16,02,24,23.40
2019,10,16,02,25,23.20
2019,10,16,02,26,26.30
2019,10,16,02,27,24.30
2019,10,16,02,28,27.40
2019,10,16,02,29,20.60
2019,10,16,02,30,23.80
2019,10,16,02,31,22.80
2019,10,16,02,32,23.10
2019,10,16,02,33,19.20
2019,10,16,02,34,21.40
2019,10,16,02,35,22.40
2019,10,16,02,36,17.60
2019,10,16,02,37,17.30
2019,10,16,02,38,21.30
2019,10,16,02,39,22.50
2019,10,16,02,40,26.30
2019,10,16,02,41,21.00
2019,10,16,02,42,22.80
2019,10,16,02,43,19.90
2019,10,16,02,44,22.60
2019,10,16,02,45,26.20
2019,10,16,02,46,18.80
2019,10,16,02,47,20.70
2019,10,16,02,48,27.50
2019,10,16,02,49,22.90
2019,10,16,02,50,22.20
2019,10,16,02,51,25.30
2019,10,16,02,52,20.50
2019,10,16,02,53,23.10
2019,10,16,02,54,23.40
2019,10,16,02,55,24.00
2019,10,16,02,56,24.00
2019,10,16,02,57,22.20
2019,10,16,02,58,19.80
2019,10,16,02,59,22.70
2019,10,16,03,00,22.50
2019,10,16,03,01,19.10
2019,10,16,03,02,19.40
2019,10,16,03,03,23.30
2019,10,16,03,04,18.50
2019,10,16,03,05,19.30
2019,10,16,03,06,19.00
2019,10,16,03,07,16.60
2019,10,16,03,08,18.90
2019,10,16,03,09,21.00
2019,10,16,03,10,21.00
2019,10,16,03,11,16.90
2019,10,16,03,12,24.60
2019,10,16,03,13,21.50
2019,10,16,03,14,22.70
2019,10,16,03,15,14.00
2019,10,16,03,16,21.80
2019,10,16,03,17,21.90
2019,10,16,03,18,16.50
2019,10,16,03,19,23.50
2019,10,16,03,20,18.20
2019,10,16,03,21,25.60
2019,10,16,03,22,22.00
2019,10,16,03,23,18.80
2019,10,16,03,24,19.50
2019,10,16,03,25,17.40
2019,10,16,03,26,23.50
2019,10,16,03,27,14.70
2019,10,16,03,28,21.30
2019,10,16,03,29,20.90
2019,10,16,03,30,17.30
2019,10,16,03,31,26.00
2019,10,16,03,32,23.50
2019,10,16,03,33,20.60
2019,10,16,03,34,26.90
2019,10,16,03,35,24.70
2019,10,16,03,36,23.50
2019,10,16,03,37,20.50
2019,10,16,03,38,23.60
2019,10,16,03,39,23.20
2019,10,16,03,40,21.20
2019,10,16,03,41,27.00
2019,10,16,03,42,21.20
2019,10,16,03,43,21.30
2019,10,16,03,44,20.20
2019,10,16,03,45,19.40
2019,10,16,03,46,19.00
2019,10,16,03,47,17.80
2019,10,16,03,48,20.20
2019,10,16,03,49,19.20
2019,10,16,03,50,17.60
2019,10,16,03,51,20.90
2019,10,16,03,52,28.60
2019,10,16,03,53,18.00
2019,10,16,03,54,20.00
2019,10,16,03,55,23.40
2019,10,16,03,56,22.60
2019,10,16,03,57,20.30
2019,10,16,03,58,22.80
2019,10,16,03,59,25.90
2019,10,16,04,00,21.30
2019,10,16,04,01,19.30
2019,10,16,04,02,22.40
2019,10,16,04,03,24.30
2019,10,16,04,04,21.80
2019,10,16,04,05,21.50
2019,10,16,04,06,21.40
2019,10,16,04,07,21.70
2019,10,16,04,08,19.10
2019,10,16,04,09,21.60
2019,10,16,04,10,23.50
2019,10,16,04,11,22.70
2019,10,16,04,12,17.20
2019,10,16,04,13,19.70
2019,10,16,04,14,21.70
2019,10,16,04,15,20.90
2019,10,16,04,16,19.30
2019,10,16,04,17,25.00
2019,10,16,04,18,20.70
2019,10,16,04,19,30.90
2019,10,16,04,20,25.70
2019,10,16,04,21,28.80
2019,10,16,04,22,19.40
2019,10,16,04,23,22.50
2019,10,16,04,24,17.30
2019,10,16,04,25,26.30
2019,10,16,04,26,25.20
2019,10,16,04,27,23.10
2019,10,16,04,28,19.10
2019,10,16,04,29,20.70
2019,10,16,04,30,27.40
2019,10,16,04,31,30.90
2019,10,16,04,32,26.50
2019,10,16,04,33,28.30
2019,10,16,04,34,23.80
2019,10,16,04,35,23.70
2019,10,16,04,36,17.30
2019,10,16,04,37,21.30
2019,10,16,04,38,26.20
2019,10,16,04,39,23.10
2019,10,16,04,40,22.10
2019,10,16,04,41,25.80
2019,10,16,04,42,25.70
2019,10,16,04,43,23.80
2019,10,16,04,44,22.80
2019,10,16,04,45,22.00
2019,10,16,04,46,19.50
2019,10,16,04,47,20.20
2019,10,16,04,48,24.90
2019,10,16,04,49,23.60
2019,10,16,04,50,21.60
2019,10,16,04,51,27.50
2019,10,16,04,52,25.00
2019,10,16,04,53,23.50
2019,10,16,04,54,24.70
2019,10,16,04,55,24.70
2019,10,16,04,56,24.90
2019,10,16,04,57,30.80
2019,10,16,04,58,26.40
2019,10,16,04,59,30.50
2019,10,16,05,00,29.10
2019,10,16,05,01,28.70
2019,10,16,05,02,23.00
2019,10,16,05,03,22.50
2019,10,16,05,04,19.80
2019,10,16,05,05,20.30
2019,10,16,05,06,24.90
2019,10,16,05,07,20.00
2019,10,16,05,08,24.30
2019,10,16,05,09,23.20
2019,10,16,05,10,18.90
2019,10,16,05,11,19.70
2019,10,16,05,12,15.10
2019,10,16,05,13,22.90
2019,10,16,05,14,22.90
2019,10,16,05,15,23.40
2019,10,16,05,16,24.10
2019,10,16,05,17,29.60
2019,10,16,05,18,23.30
2019,10,16,05,19,26.30
2019,10,16,05,20,25.60
2019,10,16,05,21,24.40
2019,10,16,05,22,28.10
2019,10,16,05,23,30.50
2019,10,16,05,24,27.40
2019,10,16,05,25,27.40
2019,10,16,05,26,34.40
2019,10,16,05,27,32.10
2019,10,16,05,28,27.40
2019,10,16,05,29,29.70
2019,10,16,05,30,27.80
2019,10,16,05,31,28.40
2019,10,16,05,32,24.80
2019,10,16,05,33,23.00
2019,10,16,05,34,23.40
2019,10,16,05,35,25.60
2019,10,16,05,36,32.00
2019,10,16,05,37,27.30
2019,10,16,05,38,28.20
2019,10,16,05,39,29.40
2019,10,16,05,40,27.20
2019,10,16,05,41,28.10
2019,10,16,05,42,28.10
2019,10,16,05,43,28.10
2019,10,16,05,44,31.60
2019,10,16,05,45,33.10
2019,10,16,05,46,25.30
2019,10,16,05,47,28.50
2019,10,16,05,48,35.00
2019,10,16,05,49,31.30
2019,10,16,05,50,33.90
2019,10,16,05,51,32.30
2019,10,16,05,52,22.60
2019,10,16,05,53,30.60
2019,10,16,05,54,34.50
2019,10,16,05,55,30.20
2019,10,16,05,56,31.90
2019,10,16,05,57,26.80
2019,10,16,05,58,32.30
2019,10,16,05,59,38.20
2019,10,16,06,00,33.30
2019,10,16,06,01,36.70
2019,10,16,06,02,35.80
2019,10,16,06,03,35.20
2019,10,16,06,04,36.90
2019,10,16,06,05,39.70
2019,10,16,06,06,41.80
2019,10,16,06,07,38.60
2019,10,16,06,08,33.10
2019,10,16,06,09,41.40
2019,10,16,06,10,37.80
2019,10,16,06,11,34.90
2019,10,16,06,12,35.90
2019,10,16,06,13,36.50
2019,10,16,06,14,30.40
2019,10,16,06,15,32.90
2019,10,16,06,16,37.90
2019,10,16,06,17,40.00
2019,10,16,06,18,34.00
2019,10,16,06,19,40.00
2019,10,16,06,20,27.70
2019,10,16,06,21,34.00
2019,10,16,06,22,29.60
2019,10,16,06,23,29.90
2019,10,16,06,24,29.60
2019,10,16,06,25,28.70
2019,10,16,06,26,32.20
2019,10,16,06,27,25.50
2019,10,16,06,28,28.10
2019,10,16,06,29,27.70
2019,10,16,06,30,29.20
2019,10,16,06,31,27.20
2019,10,16,06,32,22.20
2019,10,16,06,33,24.10
2019,10,16,06,34,23.70
2019,10,16,06,35,28.70
2019,10,16,06,36,25.30
2019,10,16,06,37,25.50
2019,10,16,06,38,22.00
2019,10,16,06,39,28.10
2019,10,16,06,40,27.70
2019,10,16,06,41,26.20
2019,10,16,06,42,29.30
2019,10,16,06,43,30.70
2019,10,16,06,44,26.10
2019,10,16,06,45,30.50
2019,10,16,06,46,29.00
2019,10,16,06,47,37.20
2019,10,16,06,48,25.60
2019,10,16,06,49,27.00
2019,10,16,06,50,39.30
2019,10,16,06,51,31.90
2019,10,16,06,52,23.60
2019,10,16,06,53,26.80
2019,10,16,06,54,29.00
2019,10,16,06,55,28.30
2019,10,16,06,56,33.90
2019,10,16,06,57,36.70
2019,10,16,06,58,31.50
2019,10,16,06,59,38.40
2019,10,16,07,00,26.50
2019,10,16,07,01,35.60
2019,10,16,07,02,33.40
2019,10,16,07,03,40.70
2019,10,16,07,04,42.60
2019,10,16,07,05,43.70
2019,10,16,07,06,33.20
2019,10,16,07,07,33.90
2019,10,16,07,08,34.70
2019,10,16,07,09,34.30
2019,10,16,07,10,42.60
2019,10,16,07,11,34.80
2019,10,16,07,12,40.50
2019,10,16,07,13,38.00
2019,10,16,07,14,45.40
2019,10,16,07,15,34.90
2019,10,16,07,16,31.50
2019,10,16,07,17,31.40
2019,10,16,07,18,33.20
2019,10,16,07,19,30.30
2019,10,16,07,20,33.10
2019,10,16,07,21,28.30
2019,10,16,07,22,29.40
2019,10,16,07,23,23.70
2019,10,16,07,24,22.60
2019,10,16,07,25,24.40
2019,10,16,07,26,22.50
2019,10,16,07,27,25.40
2019,10,16,07,28,27.80
2019,10,16,07,29,22.40
2019,10,16,07,30,24.70
2019,10,16,07,31,23.60
2019,10,16,07,32,17.60
2019,10,16,07,33,23.40
2019,10,16,07,34,19.60
2019,10,16,07,35,26.90
2019,10,16,07,36,28.60
2019,10,16,07,37,25.50
2019,10,16,07,38,20.90
2019,10,16,07,39,22.90
2019,10,16,07,40,22.90
2019,10,16,07,41,22.90
2019,10,16,07,42,17.80
2019,10,16,07,43,25.60
2019,10,16,07,44,23.80
2019,10,16,07,45,26.80
2019,10,16,07,46,26.20
2019,10,16,07,47,26.20
2019,10,16,07,48,29.20
2019,10,16,07,49,31.40
2019,10,16,07,50,27.80
2019,10,16,07,51,31.80
2019,10,16,07,52,21.50
2019,10,16,07,53,19.40
2019,10,16,07,54,27.80
2019,10,16,07,55,28.70
2019,10,16,07,56,21.70
2019,10,16,07,57,18.40
2019,10,16,07,58,21.60
2019,10,16,07,59,21.00
2019,10,16,08,00,30.60
2019,10,16,08,01,27.50
2019,10,16,08,02,26.50
2019,10,16,08,03,23.70
2019,10,16,08,04,25.70
2019,10,16,08,05,29.10
2019,10,16,08,06,23.30
2019,10,16,08,07,22.20
2019,10,16,08,08,20.70
2019,10,16,08,09,22.70
2019,10,16,08,10,27.80
2019,10,16,08,11,27.90
2019,10,16,08,12,30.80
2019,10,16,08,13,22.30
2019,10,16,08,14,27.10
2019,10,16,08,15,30.90
2019,10,16,08,16,24.30
2019,10,16,08,17,24.10
2019,10,16,08,18,25.90
2019,10,16,08,19,27.10
2019,10,16,08,20,29.50
2019,10,16,08,21,26.50
2019,10,16,08,22,24.30
2019,10,16,08,23,25.10
2019,10,16,08,24,27.20
2019,10,16,08,25,34.90
2019,10,16,08,26,23.70
2019,10,16,08,27,23.60
2019,10,16,08,28,25.30
2019,10,16,08,29,30.50
2019,10,16,08,30,24.00
2019,10,16,08,31,28.90
2019,10,16,08,32,34.60
2019,10,16,08,33,31.40
2019,10,16,08,34,33.40
2019,10,16,08,35,30.80
2019,10,16,08,36,28.80
2019,10,16,08,37,25.20
2019,10,16,08,38,20.90
2019,10,16,08,39,22.40
2019,10,16,08,40,27.80
2019,10,16,08,41,25.60
2019,10,16,08,42,30.50
2019,10,16,08,43,34.70
2019,10,16,08,44,34.60
2019,10,16,08,45,30.60
2019,10,16,08,46,32.60
2019,10,16,08,47,39.20
2019,10,16,08,48,32.80
2019,10,16,08,49,29.00
2019,10,16,08,50,35.00
2019,10,16,08,51,30.30
2019,10,16,08,52,37.40
2019,10,16,08,53,37.30
2019,10,16,08,54,33.30
2019,10,16,08,55,28.30
2019,10,16,08,56,28.20
2019,10,16,08,57,32.10
2019,10,16,08,58,35.50
2019,10,16,08,59,36.50
2019,10,16,09,00,34.90
2019,10,16,09,01,37.80
2019,10,16,09,02,31.90
2019,10,16,09,03,31.90
2019,10,16,09,04,44.40
2019,10,16,09,05,38.40
2019,10,16,09,06,41.70
2019,10,16,09,07,31.60
2019,10,16,09,08,37.60
2019,10,16,09,09,33.20
2019,10,16,09,10,34.40
2019,10,16,09,11,36.80
2019,10,16,09,12,40.80
2019,10,16,09,13,29.30
2019,10,16,09,14,33.10
2019,10,16,09,15,40.00
2019,10,16,09,16,41.60
2019,10,16,09,17,35.70
2019,10,16,09,18,40.40
2019,10,16,09,19,38.60
2019,10,16,09,20,33.10
2019,10,16,09,21,39.40
2019,10,16,09,22,35.60
2019,10,16,09,23,32.90
2019,10,16,09,24,28.20
2019,10,16,09,25,33.90
2019,10,16,09,26,37.80
2019,10,16,09,27,39.20
2019,10,16,09,28,37.50
2019,10,16,09,29,35.50
2019,10,16,09,30,31.70
2019,10,16,09,31,33.90
2019,10,16,09,32,35.20
2019,10,16,09,33,38.40
2019,10,16,09,34,27.50
2019,10,16,09,35,39.30
2019,10,16,09,36,27.80
2019,10,16,09,37,28.40
2019,10,16,09,38,31.10
2019,10,16,09,39,37.40
2019,10,16,09,40,30.30
2019,10,16,09,41,30.90
2019,10,16,09,42,25.60
2019,10,16,09,43,29.00
2019,10,16,09,44,29.40
2019,10,16,09,45,25.70
2019,10,16,09,46,36.50
2019,10,16,09,47,32.70
2019,10,16,09,48,31.30
2019,10,16,09,49,34.40
2019,10,16,09,50,34.60
2019,10,16,09,51,26.80
2019,10,16,09,52,37.50
2019,10,16,09,53,30.70
2019,10,16,09,54,34.00
2019,10,16,09,55,38.70
2019,10,16,09,56,33.40
2019,10,16,09,57,28.10
2019,10,16,09,58,29.40
2019,10,16,09,59,28.00
2019,10,16,10,00,29.40
2019,10,16,10,01,26.10
2019,10,16,10,02,26.50
2019,10,16,10,03,31.50
2019,10,16,10,04,28.30
2019,10,16,10,05,34.30
2019,10,16,10,06,28.30
2019,10,16,10,07,25.00
2019,10,16,10,08,36.50
2019,10,16,10,09,37.10
2019,10,16,10,10,30.10
2019,10,16,10,11,30.00
2019,10,16,10,12,31.80
2019,10,16,10,13,30.90
2019,10,16,10,14,35.50
2019,10,16,10,15,36.30
2019,10,16,10,16,24.90
2019,10,16,10,17,34.20
2019,10,16,10,18,31.30
2019,10,16,10,19,28.40
2019,10,16,10,20,24.70
2019,10,16,10,21,24.60
2019,10,16,10,22,38.50
2019,10,16,10,23,26.30
2019,10,16,10,24,26.20
2019,10,16,10,25,33.50
2019,10,16,10,26,28.80
2019,10,16,10,27,29.70
2019,10,16,10,28,29.10
2019,10,16,10,29,32.40
2019,10,16,10,30,24.10
2019,10,16,10,31,29.70
2019,10,16,10,32,28.30
2019,10,16,10,33,24.70
2019,10,16,10,34,29.80
2019,10,16,10,35,21.30
2019,10,16,10,36,31.40
2019,10,16,10,37,31.90
2019,10,16,10,38,21.60
2019,10,16,10,39,19.10
2019,10,16,10,40,23.20
2019,10,16,10,41,18.40
2019,10,16,10,42,22.90
2019,10,16,10,43,21.30
2019,10,16,10,44,24.50
2019,10,16,10,45,23.20
2019,10,16,10,46,25.60
2019,10,16,10,47,27.20
2019,10,16,10,48,25.00
2019,10,16,10,49,23.80
2019,10,16,10,50,27.00
2019,10,16,10,51,26.90
2019,10,16,10,52,26.70
2019,10,16,10,53,25.30
2019,10,16,10,54,22.50
2019,10,16,10,55,24.70
2019,10,16,10,56,25.30
2019,10,16,10,57,25.50
2019,10,16,10,58,32.50
2019,10,16,10,59,30.20
2019,10,16,11,00,34.50
2019,10,16,11,01,27.20
2019,10,16,11,02,29.10
2019,10,16,11,03,28.40
2019,10,16,11,04,29.60
2019,10,16,11,05,33.30
2019,10,16,11,06,28.80
2019,10,16,11,07,28.70
2019,10,16,11,08,26.20
2019,10,16,11,09,31.90
2019,10,16,11,10,35.40
2019,10,16,11,11,25.20
2019,10,16,11,12,29.00
2019,10,16,11,13,33.70
2019,10,16,11,14,27.00
2019,10,16,11,15,31.80
2019,10,16,11,16,36.10
2019,10,16,11,17,27.20
2019,10,16,11,18,26.60
2019,10,16,11,19,33.40
2019,10,16,11,20,31.20
2019,10,16,11,21,29.10
2019,10,16,11,22,33.10
2019,10,16,11,23,25.10
2019,10,16,11,24,28.70
2019,10,16,11,25,29.00
2019,10,16,11,26,28.00
2019,10,16,11,27,25.40
2019,10,16,11,28,27.50
2019,10,16,11,29,33.00
2019,10,16,11,30,29.00
2019,10,16,11,31,34.70
2019,10,16,11,32,32.30
2019,10,16,11,33,25.30
2019,10,16,11,34,31.40
2019,10,16,11,35,35.80
2019,10,16,11,36,33.10
2019,10,16,11,37,28.00
2019,10,16,11,38,24.40
2019,10,16,11,39,43.60
2019,10,16,11,40,30.30
2019,10,16,11,41,32.50
2019,10,16,11,42,33.00
2019,10,16,11,43,29.30
2019,10,16,11,44,21.70
2019,10,16,11,45,27.50
2019,10,16,11,46,18.00
2019,10,16,11,47,18.20
2019,10,16,11,48,23.00
2019,10,16,11,49,24.00
2019,10,16,11,50,18.70
2019,10,16,11,51,18.50
2019,10,16,11,52,23.00
2019,10,16,11,53,26.00
2019,10,16,11,54,27.90
2019,10,16,11,55,15.20
2019,10,16,11,56,21.80
2019,10,16,11,57,22.50
2019,10,16,11,58,19.80
2019,10,16,11,59,20.20
2019,10,16,12,00,22.30
2019,10,16,12,01,23.50
2019,10,16,12,02,25.60
2019,10,16,12,03,21.30
2019,10,16,12,04,24.90
2019,10,16,12,05,27.50
2019,10,16,12,06,21.40
2019,10,16,12,07,30.30
2019,10,16,12,08,17.90
2019,10,16,12,09,19.90
2019,10,16,12,10,24.10
2019,10,16,12,11,25.50
2019,10,16,12,12,17.70
2019,10,16,12,13,22.20
2019,10,16,12,14,18.20
2019,10,16,12,15,23.80
2019,10,16,12,16,24.70
2019,10,16,12,17,23.80
2019,10,16,12,18,20.30
2019,10,16,12,19,21.90
2019,10,16,12,20,24.10
2019,10,16,12,21,24.50
2019,10,16,12,22,23.60
2019,10,16,12,23,26.60
2019,10,16,12,24,21.80
2019,10,16,12,25,24.00
2019,10,16,12,26,22.90
2019,10,16,12,27,19.80
2019,10,16,12,28,18.50
2019,10,16,12,29,21.70
2019,10,16,12,30,20.40
2019,10,16,12,31,15.40
2019,10,16,12,32,12.70
2019,10,16,12,33,22.30
2019,10,16,12,34,15.20
2019,10,16,12,35,17.50
2019,10,16,12,36,16.40
2019,10,16,12,37,14.10
2019,10,16,12,38,15.80
2019,10,16,12,39,13.20
2019,10,16,12,40,9.20
2019,10,16,12,41,9.50
2019,10,16,12,42,11.70
2019,10,16,12,43,7.30
2019,10,16,12,44,9.70
2019,10,16,12,45,8.20
2019,10,16,12,46,11.30
2019,10,16,12,47,11.60
2019,10,16,12,48,14.70
2019,10,16,12,49,13.10
2019,10,16,12,50,14.70
2019,10,16,12,51,13.20
2019,10,16,12,52,13.10
2019,10,16,12,53,12.70
2019,10,16,12,54,14.40
2019,10,16,12,55,16.90
2019,10,16,12,56,17.60
2019,10,16,12,57,16.30
2019,10,16,12,58,21.30
2019,10,16,12,59,19.10
2019,10,16,13,00,15.30
2019,10,16,13,01,14.00
2019,10,16,13,02,17.40
2019,10,16,13,03,15.50
2019,10,16,13,04,17.30
2019,10,16,13,05,15.10
2019,10,16,13,06,14.20
2019,10,16,13,07,10.10
2019,10,16,13,08,7.50
2019,10,16,13,09,8.90
2019,10,16,13,10,10.30
2019,10,16,13,11,8.70
2019,10,16,13,12,11.20
2019,10,16,13,13,12.60
2019,10,16,13,14,11.20
2019,10,16,13,15,14.40
2019,10,16,13,16,14.40
2019,10,16,13,17,11.60
2019,10,16,13,18,6.60
2019,10,16,13,19,7.90
2019,10,16,13,20,6.90
2019,10,16,13,21,6.40
2019,10,16,13,22,5.80
2019,10,16,13,23,6.80
2019,10,16,13,24,12.70
2019,10,16,13,25,13.60
2019,10,16,13,26,15.70
2019,10,16,13,27,15.10
2019,10,16,13,28,18.50
2019,10,16,13,29,14.40
2019,10,16,13,30,13.20
2019,10,16,13,31,16.70
2019,10,16,13,32,15.20
2019,10,16,13,33,12.20
2019,10,16,13,34,14.00
2019,10,16,13,35,15.10
2019,10,16,13,36,17.00
2019,10,16,13,37,16.50
2019,10,16,13,38,17.10
2019,10,16,13,39,18.50
2019,10,16,13,40,17.80
2019,10,16,13,41,19.00
2019,10,16,13,42,15.10
2019,10,16,13,43,16.00
2019,10,16,13,44,15.30
2019,10,16,13,45,14.50
2019,10,16,13,46,13.70
2019,10,16,13,47,11.90
2019,10,16,13,48,10.20
2019,10,16,13,49,16.30
2019,10,16,13,50,16.60
2019,10,16,13,51,17.50
2019,10,16,13,52,16.40
2019,10,16,13,53,15.70
2019,10,16,13,54,12.80
2019,10,16,13,55,18.20
2019,10,16,13,56,15.90
2019,10,16,13,57,16.40
2019,10,16,13,58,17.40
2019,10,16,13,59,14.10
2019,10,16,14,00,19.10
2019,10,16,14,01,20.60
2019,10,16,14,02,21.60
2019,10,16,14,03,19.00
2019,10,16,14,04,18.30
2019,10,16,14,05,21.50
2019,10,16,14,06,15.60
2019,10,16,14,07,18.40
2019,10,16,14,08,19.10
2019,10,16,14,09,17.00
2019,10,16,14,10,14.60
2019,10,16,14,11,11.60
2019,10,16,14,12,11.30
2019,10,16,14,13,11.00
2019,10,16,14,14,7.90
2019,10,16,14,15,11.30
2019,10,16,14,16,10.80
2019,10,16,14,17,15.00
2019,10,16,14,18,11.00
2019,10,16,14,19,9.80
2019,10,16,14,20,10.00
2019,10,16,14,21,8.20
2019,10,16,14,22,9.80
2019,10,16,14,23,10.00
2019,10,16,14,24,10.70
2019,10,16,14,25,6.30
2019,10,16,14,26,9.80
2019,10,16,14,27,7.40
2019,10,16,14,28,8.40
2019,10,16,14,29,10.10
2019,10,16,14,30,17.30
2019,10,16,14,31,15.20
2019,10,16,14,32,10.80
2019,10,16,14,33,12.20
2019,10,16,14,34,13.70
2019,10,16,14,35,11.90
2019,10,16,14,36,12.00
2019,10,16,14,37,7.90
2019,10,16,14,38,8.70
2019,10,16,14,39,12.30
2019,10,16,14,40,16.60
2019,10,16,14,41,13.80
2019,10,16,14,42,15.80
2019,10,16,14,43,14.80
2019,10,16,14,44,15.40
2019,10,16,14,45,16.00
2019,10,16,14,46,17.50
2019,10,16,14,47,18.40
2019,10,16,14,48,17.00
2019,10,16,14,49,16.50
2019,10,16,14,50,15.80
2019,10,16,14,51,14.70
2019,10,16,14,52,14.30
2019,10,16,14,53,13.40
2019,10,16,14,54,10.60
2019,10,16,14,55,8.20
2019,10,16,14,56,12.60
2019,10,16,14,57,9.60
2019,10,16,14,58,10.00
2019,10,16,14,59,12.60
2019,10,16,15,00,7.30
2019,10,16,15,01,13.70
2019,10,16,15,02,11.00
2019,10,16,15,03,11.30
2019,10,16,15,04,13.50
2019,10,16,15,05,8.90
2019,10,16,15,06,12.20
2019,10,16,15,07,10.00
2019,10,16,15,08,14.20
2019,10,16,15,09,10.80
2019,10,16,15,10,7.20
2019,10,16,15,11,8.50
2019,10,16,15,12,5.90
2019,10,16,15,13,4.80
2019,10,16,15,14,8.70
2019,10,16,15,15,6.50
2019,10,16,15,16,5.10
2019,10,16,15,17,3.40
2019,10,16,15,18,1.80
2019,10,16,15,19,4.20
2019,10,16,15,20,8.50
2019,10,16,15,21,16.20
2019,10,16,15,22,13.10
2019,10,16,15,23,6.30
2019,10,16,15,24,9.40
2019,10,16,15,25,8.00
2019,10,16,15,26,11.30
2019,10,16,15,27,7.20
2019,10,16,15,28,7.60
2019,10,16,15,29,10.80
2019,10,16,15,30,10.90
2019,10,16,15,31,13.90
2019,10,16,15,32,14.30
2019,10,16,15,33,12.70
2019,10,16,15,34,13.80
2019,10,16,15,35,11.00
2019,10,16,15,36,7.80
2019,10,16,15,37,6.80
2019,10,16,15,38,10.50
2019,10,16,15,39,7.60
2019,10,16,15,40,7.50
2019,10,16,15,41,8.90
2019,10,16,15,42,9.80
2019,10,16,15,43,11.20
2019,10,16,15,44,12.00
2019,10,16,15,45,11.90
2019,10,16,15,46,11.60
2019,10,16,15,47,15.30
2019,10,16,15,48,12.10
2019,10,16,15,49,11.00
2019,10,16,15,50,11.20
2019,10,16,15,51,12.60
2019,10,16,15,52,12.30
2019,10,16,15,53,11.50
2019,10,16,15,54,10.50
2019,10,16,15,55,8.50
2019,10,16,15,56,8.50
2019,10,16,15,57,6.70
2019,10,16,15,58,8.50
2019,10,16,15,59,7.80
2019,10,16,16,00,7.30
2019,10,16,16,01,7.20
2019,10,16,16,02,8.60
2019,10,16,16,03,11.20
2019,10,16,16,04,8.50
2019,10,16,16,05,7.30
2019,10,16,16,06,8.60
2019,10,16,16,07,9.80
2019,10,16,16,08,11.00
2019,10,16,16,09,10.10
2019,10,16,16,10,10.40
2019,10,16,16,11,12.30
2019,10,16,16,12,14.40
2019,10,16,16,13,9.70
2019,10,16,16,14,12.10
2019,10,16,16,15,14.40
2019,10,16,16,16,18.20
2019,10,16,16,17,13.20
2019,10,16,16,18,15.50
2019,10,16,16,19,14.60
2019,10,16,16,20,14.20
2019,10,16,16,21,14.10
2019,10,16,16,22,13.40
2019,10,16,16,23,11.80
2019,10,16,16,24,12.80
2019,10,16,16,25,8.10
2019,10,16,16,26,8.20
2019,10,16,16,27,10.90
2019,10,16,16,28,13.20
2019,10,16,16,29,15.10
2019,10,16,16,30,12.60
2019,10,16,16,31,11.90
2019,10,16,16,32,10.70
2019,10,16,16,33,10.70
2019,10,16,16,34,14.40
2019,10,16,16,35,9.80
2019,10,16,16,36,8.20
2019,10,16,16,37,8.20
2019,10,16,16,38,8.10
2019,10,16,16,39,15.30
2019,10,16,16,40,15.20
2019,10,16,16,41,15.20
2019,10,16,16,42,14.70
2019,10,16,16,43,12.60
2019,10,16,16,44,16.50
2019,10,16,16,45,15.50
2019,10,16,16,46,13.40
2019,10,16,16,47,11.00
2019,10,16,16,48,13.80
2019,10,16,16,49,15.10
2019,10,16,16,50,11.20
2019,10,16,16,51,8.50
2019,10,16,16,52,13.70
2019,10,16,16,53,12.80
2019,10,16,16,54,13.30
2019,10,16,16,55,14.50
2019,10,16,16,56,12.90
2019,10,16,16,57,12.10
2019,10,16,16,58,8.60
2019,10,16,16,59,12.00
2019,10,16,17,00,12.10
2019,10,16,17,01,8.70
2019,10,16,17,02,15.40
2019,10,16,17,03,14.70
2019,10,16,17,04,12.30
2019,10,16,17,05,14.10
2019,10,16,17,06,15.50
2019,10,16,17,07,18.10
2019,10,16,17,08,17.70
2019,10,16,17,09,15.70
2019,10,16,17,10,19.10
2019,10,16,17,11,14.70
2019,10,16,17,12,14.70
2019,10,16,17,13,12.90
2019,10,16,17,14,15.60
2019,10,16,17,15,13.20
2019,10,16,17,16,14.10
2019,10,16,17,17,9.20
2019,10,16,17,18,10.60
2019,10,16,17,19,14.80
2019,10,16,17,20,11.60
2019,10,16,17,21,12.60
2019,10,16,17,22,16.60
2019,10,16,17,23,14.40